www.pogodaiklimat.ru

Погода и климат >> Архив погоды >> Хорватия >> Dubrovnik-Cilipi


ПОГОДА в Dubrovnik-Cilipi

  • Прогноз погоды в Dubrovnik-Cilipi
  • Монитор погоды в Dubrovnik-Cilipi
  • Климат города

АРХИВ ПОГОДЫ в Dubrovnik-Cilipi

Время (UTC), дата Ветер
(напр.,м/с)
 
Видим.   Явления Облачность Т
(С)
Тd
(С)
f
(%)
Тe
(С)
Тes
(С)
Комфортность P
(гПа)
Po
(гПа)
Тmin
(С)
Tmax
(С)
R
(мм)
R24
(мм)
S
(см)
06 16.01 В 6 25 км в посл. час дождь 9/9 840 м
[Cu Sc Ac As]
+5.4 +4.6 95 0 0 1017.8 998.4 +3.5 0.2
09 16.01 В 4 16 км слабый ливневой дождь, в посл. час гроза 10/9 360 м
[Cu Sc Ac As]
+7.4 +7.3 99 +4 +4 1016.8 997.6
12 16.01 ЮЗ 4 20 км {гроза, дождь} 8/8 600 м
[Cu Sc]
+12.1 +6.8 70 +10 +11 1014.3 995.4 5
15 16.01 ЮВ 3 25 км 9/6 700 м
[Frnb Ac As]
+10.8 +7.1 78 +9 +9 1012.8 993.9
18 16.01 В 4 25 км 10/0
[As op]
+9.2 +7.4 88 +6 +6 1011.7 992.7 +12.8 5
21 16.01 В 5 25 км 10/8 600 м
[Cu Sc Ac As]
+9.6 +8.2 91 +6 +6 1010.8 991.9
00 17.01 В 4 25 км н/о +10.0 +9.6 97 +7 +7 1009.6 990.7
03 17.01 В 4 25 км 9/8 540 м
[Sc Ac As]
+10.1 +10.0 99 +7 +7 1006.7 987.9
06 17.01 ЮВ 4 20 км {дождь} 10/9 270 м
[Cu Sc As op]
+11.9 +11.3 96 +10 +10 1003.8 985.2 +9.0 0.0
09 17.01 В 2 20 км {дождь} 9/8 300 м
[Cu Sc As trans]
+12.9 +11.6 92 +12 +13 1001.3 982.8
12 17.01 ЮВ 3 18 км в посл. час дождь 9/5 360 м
[Cu med, cong Ac As]
+13.1 +12.3 95 +12 +12 997.2 978.8 0.6
15 17.01 СЗ 6
{19}
20 км в посл. час гроза {дождь} 9/6 840 м
[Cu Sc Ac As]
+10.6 +2.7 58 +8 +8 996.4 977.7
18 17.01 С 12-19
{19}
8000 м дождь {гроза} 10/3 1050 м
[Sc Ac As]
+7.3 +0.5 62 +2 +2 999.9 980.9 +15.2 3
21 17.01 С 11-16
{24}
20 км в посл. час дождь 10/1 1000 м
[Sc Ac As]
+7.0 -2.4 51 +2 +2 1004.2 985.1
00 18.01 СЗ 10
{24}
25 км {дождь} 1/0
[Ac trans]
+7.0 -5.1 42 +2 +2 1008.4 989.2 0.4
03 18.01 СЗ 5 25 км ясно +5.5 -7.0 40 +2 +2 1012.9 993.5
06 18.01 С 6 30 км ясно +5.7 -9.2 33 +2 +2 1015.5 996.1 +4.9 0.4
09 18.01 СЗ 5 50 км ясно +7.8 -7.6 33 +5 +7 1018.1 998.8
12 18.01 СЗ 6 50 км ясно +10.6 -10.3 22 +8 +10 1018.2 999.1
15 18.01 З 4 50 км 3/0
[Ci]
+9.7 -3.0 41 +8 +8 1017.8 998.7
18 18.01 В 4 50 км ясно +4.9 -3.1 56 +1 +1 1018.6 999.1 +11.4
21 18.01 В 5 30 км ясно +5.9 -2.6 54 +2 +2 1018.1 998.7
00 19.01 В 5 30 км ясно +5.6 -1.7 59 +2 +2 1017.8 998.4
03 19.01 В 5 30 км 3/0
[Ac trans]
+5.1 -0.6 67 +1 +1 1016.3 996.9
06 19.01 В 8 30 км 6/6 900 м
[Cu Sc]
+8.1 +0.3 58 +4 +4 1015.8 996.6 +3.7
09 19.01 В 9 30 км 8/6 840 м
[Cu Sc Ac trans]
+9.6 +3.4 65 +5 +6 1015.6 996.5
12 19.01 В 9 20 км дождь 10/8 800 м
[Cu Sc As op]
+9.1 +5.2 77 +5 +5 1014.4 995.3 0.0
15 19.01 В 7 15 км в посл. час дождь 10/8 700 м
[Cu Sc Ac As]
+8.8 +8.0 95 +4 +4 1013.6 994.5
18 19.01 В 6 12 км слабый дождь 10/9 480 м
[Cu Sc Ac As]
+9.3 +9.1 99 +5 +5 1013.2 994.2 +11.7 2
21 19.01 Ю 6 20 км в посл. час дождь 10/9 1200 м
[Sc Ac As]
+12.1 +9.2 82 +9 +9 1012.4 993.6
00 20.01 Ю 5 20 км н/о +12.4 +11.2 92 +10 +10 1011.6 992.8 0.6
03 20.01 Ю 5 15 км в посл. час дождь 10/9 450 м
[Cu Sc Ac As]
+12.1 +11.5 96 +10 +10 1010.5 991.7
06 20.01 ЮЗ 3 25 км {дождь} 10/9 450 м
[Cu Sc Ac As]
+12.0 +10.1 88 +10 +10 1010.0 991.2 +9.2 0.8
09 20.01 С 4 25 км 9/6 600 м
[Cu Sc Ac As Cs]
+10.4 +5.7 73 +8 +9 1010.7 991.8
12 20.01 С 5 20 км в посл. час дождь 8/0
[Ac As]
+9.4 +3.6 67 +6 +7 1010.9 991.9 0.4
15 20.01 З 3 25 км 1/1 600 м
[Cu hum]
+10.2 +3.5 63 +8 +8 1011.2 992.2
18 20.01 СВ 4 30 км ясно +8.0 +0.8 60 +5 +5 1012.2 993.1 +12.0 0.4
21 20.01 В 5 30 км ясно +5.4 +4.3 93 +1 +1 1012.8 993.5
00 21.01 В 5 30 км 3/0
[Ac trans]
+5.7 +4.6 93 +1 +1 1010.9 991.7
03 21.01 В 5 30 км 8/5 900 м
[Cu Sc Ac trans]
+6.7 +4.9 88 +2 +2 1009.3 990.2
06 21.01 В 5 20 км {дождь} 10/9 840 м
[Cu Sc Ac As]
+7.6 +6.4 92 +4 +4 1006.6 987.6 +4.6 0.2
09 21.01 В 7 20 км слабый дождь 9/8 180 м
[Cu Sc Ac As]
+8.2 +8.1 99 +4 +4 1004.7 985.8
12 21.01 В 2 5000 м дождь 10/8 90 м
[Sc As op]
+8.3 +8.2 99 +6 +6 1002.8 983.9 9
15 21.01 С 6 25 км {дождь} 5/3 600 м
[Cu Sc Ac trans]
+9.2 +6.0 80 +6 +6 1001.8 983.0
18 21.01 С 7-18
{20}
30 км {дождь} 1/0
[Ac trans]
+8.7 -0.7 52 +5 +5 1003.8 984.9 +9.9 12
21 21.01 С 13-25
{31}
30 км ясно +7.8 -4.8 40 +3 +3 1004.5 985.5
00 22.01 С 9-23
{31}
30 км ясно +6.9 -5.6 41 +2 +2 1007.9 988.7
03 22.01 СВ 18-28
{30}
30 км ясно +5.9 -7.5 38 -1 -1 1009.7 990.4
06 22.01 С 6-11
{31}
50 км ясно +4.5 -7.2 42 0 0 1012.8 993.4 +4.3
09 22.01 С 4-9
{24}
50 км ясно +5.8 -8.8 34 +3 +5 1014.5 995.1
12 22.01 СЗ 2 50 км ясно +7.9 -7.3 33 +7 +11 1014.4 995.2
15 22.01 СВ 15-22
{23}
50 км ясно +7.1 -8.7 31 +1 +1 1011.9 992.7
18 22.01 С 9
{23}
50 км ясно +5.9 -8.7 34 +1 +1 1015.4 996.0 +9.0
21 22.01 С 7 40 км ясно +5.2 -9.4 34 +1 +1 1015.6 996.2
00 23.01 С 5 30 км 9/0
[Ac As]
+5.2 -11.0 30 +2 +2 1015.7 996.3

 

Местоположение метеостанции Dubrovnik-Cilipi (Хорватия): широта 42.57 долгота 18.27 высота над уровнем моря 165 м.

В архиве по умолчанию представлена погода в Dubrovnik-Cilipi за последнюю неделю. Архивные данные за месяц целиком и за предыдущие месяцы, начиная с января 2011 года, Вы можете получить, выбрав интересующий диапазон дат из раскрывающегося списка и нажав кнопку "Ввод!".

Внимание! Время в таблицах - всемирное. Для получения местного времени необходимо прибавить поправку, которая в Dubrovnik-Cilipi равна 1 ч.

Смотрите также архив погоды в соседних городах и на ближайших метеорологических станциях:

Погода в Dubrovnik-Gorica (Хорватия) (18 км)
Погода в Tivat (Черногория) (42 км)
Погода в Niksic (Черногория) (60 км)
Погода в Neum (Босния и Герцеговина) (67 км)
Погода в Podgorica (Черногория) (83 км)
Погода в Podgorica-Grad (Черногория) (84 км)
Погода в Ploce (Хорватия) (86 км)
Погода в Bar (Черногория) (86 км)
Погода в Mostar (Босния и Герцеговина) (95 км)
Погода в Lastovo (Хорватия) (114 км)

Пояснения к столбцам:

Ветер - указаны скорость ветра в м/с - средняя за 10 мин, порывы в срок и между сроками (в фигурных скобках) и направление, откуда дует ветер: С - северный, СВ - северо-восточный, В - восточный, ЮВ - юго-восточный, Ю - южный, ЮЗ - юго-западный, З - западный, СЗ - северо-западный.
Видимость - горизонтальная дальность видимости в метрах или километрах. При видимости от 1 до 10 км при отсутствии осадков обычно наблюдается дымка, при ухудшении видимости до 1 км и менее - туман. В сухую погоду видимость может ухудшаться дымом, пылью или мглою.
Явления - указаны атмосферные явления, наблюдавшиеся в срок или в последний час перед сроком; фигурными скобками обозначены явления, наблюдавшиеся между сроками (за 1-3 часа до срока); квадратными скобками обозначены град или гололедные отложения с указанием их диаметра в мм.
Облачность - указаны через наклонную черту общая и нижняя облачность в баллах и высота нижней границы облаков в метрах; квадратными скобками обозначены формы облаков: Ci - перистые, Cs - перисто-слоистые, Cc - перисто-кучевые, Ac - высококучевые, As - высокослоистые, Sc - слоисто-кучевые, Ns - слоисто-дождевые, Cu - кучевые, Cb - кучево-дождевые. Подробнее классификацию облаков см. в Атласе облаков (PDF).
T - Температура воздуха - температура, измеренная на высоте 2 м над землей.
Td - Температура точки росы - температура, при понижении до которой содержащийся в воздухе водяной пар достигнет насыщения.
f - Относительная влажность воздуха - влажноcть воздуха, измеренная на высоте 2 м над землей.
Te - Эффективная температура - температура, которую ощущает одетый по сезону человек в тени. Характеристика душности погоды. При расчете учитывается влияние влажности воздуха и скорости ветра на теплоощущения человека.
Tes - Эффективная температура на солнце - температура, которую ощущает человек, с поправкой на солнечный нагрев. Характеристика знойности погоды. Зависит от высоты солнца над горизонтом, облачности и скорости ветра. Ночью, в пасмурную погоду, а также при ветре 12 м/с и более поправка равна нулю.
P - Атмосферное давление - приведенное к уровню моря атмосферное давление.
Po - Атмосферное давление - измеренное на уровне метеостанции атмосферное давление.
Tmin - Минимальная температура - минимум температуры воздуха на высоте 2 м над землей.
Tmax - Максимальная температура - максимум температуры воздуха на высоте 2 м над землей.
R - Количество осадков - Количество выпавших осадков за период времени, мм. При наведении курсора мыши на число - период времени, за который выпало указанное количество осадков.
R24 - Количество осадков - Количество выпавших осадков за 24 часа, мм.
S - Снежный покров - Высота снежного покрова, см. При наведении курсора мыши на число - состояние снежного покрова и степень покрытия местности в баллах.